{"data":{"norad_id":63704,"epoch":"2026-09-20T20:28:25.289472Z","epoch_age_seconds":121985,"freshness":"FRESH","line1":"1 63704U 25087H   26263.85307048  .00019003  00000+0  57224-3 0  9991","line2":"2 63704  53.1591  32.0766 0001203  52.0024 308.1087 15.34394519 79095","mean_motion":15.34394519,"eccentricity":0.0001203,"inclination_deg":53.1591,"raan_deg":32.0766,"arg_perigee_deg":52.0024,"mean_anomaly_deg":308.1087,"bstar":0.00057224,"rev_number":7909,"period_min":93.848093314259,"perigee_km":461.89657590199,"apogee_km":463.54248598334,"semimajor_km":6840.8565309427,"source":"CELESTRAK","updated_at":"2026-09-21T09:00:35.063421Z"}}